Regional Weather Roundup
Issued by NWS Cleveland, OH

Home | Current Version | Previous Version | Graphics & Text | Print | Product List | Glossary On
Versions: 1 2 3 4 5 6 7 8 9 10 11 12 13 14 15 16 17 18 19 20 21 22 23 24 25 26 27 28 29 30 31 32 33 34 35 36 37 38 39 40 41 42 43 44 45 46 47 48 49 50
448
ASUS41 KCLE 090202
RWRCLE
OHIO REGIONAL WEATHER ROUNDUP
NATIONAL WEATHER SERVICE CLEVELAND, OH
900 PM EST MON FEB 08 2016

NOTE: "FAIR" INDICATES FEW OR NO CLOUDS BELOW 12,000 FEET WITH NO
SIGNIFICANT WEATHER AND/OR OBSTRUCTIONS TO VISIBILITY.

OHZ001>008-015>018-024>027-034-035-043-044-090300-
   NORTHWEST OHIO

CITY           SKY/WX    TMP DP  RH WIND       PRES   REMARKS
DEFIANCE       CLOUDY    33  27  78 W9        29.65R WCI  25
FINDLAY        MOCLDY    31  26  82 W6        29.62S WCI  25
TOLEDO EXPRESS MOCLDY    32  26  78 W9        29.61F WCI  24
TOLEDO EXEC    CLOUDY    34  26  72 W10       29.62S WCI  26
LIMA           CLOUDY    32  29  88 W13       29.64S WCI  22
$$

OHZ009>014-019>023-028>033-038-089-090300-
   NORTHEAST OHIO

CITY           SKY/WX    TMP DP  RH WIND       PRES   REMARKS
CLE-HOPKINS    LGT SNOW  33  31  92 SW6       29.62S FOG     WCI  28
CLE-LAKEFRONT  LGT SNOW  34  32  92 SW7       29.60S FOG     WCI  28
CUY CO. ARPT   LGT SNOW  34  32  93 SW9       29.60S FOG     WCI  26
LORAIN-ELYRIA  LGT SNOW  32  31  96 W5        29.61S FOG     WCI  27
ASHTABULA      LGT SNOW  33  31  92 W7        29.58R FOG     WCI  27
AKRON-CANTON   CLOUDY    31  29  92 SW5       29.59F WCI  26
WOOSTER        LGT SNOW  32  31  96 W5        29.60S FOG     WCI  27
MANSFIELD      MOCLDY    32  31  96 W6        29.59F WCI  26
YOUNGSTOWN     FLURRIES  32  30  92 W8        29.58S WCI  25
$$

OHZ042-051>053-060>062-070>072-077>081-090300-
  SOUTHWEST OHIO

CITY           SKY/WX    TMP DP  RH WIND       PRES   REMARKS
CINC-COVINGTON LGT SNOW  26  24  92 W14       29.73R FOG     WCI  14
CINC-LUNKEN    LGT SNOW  29  26  89 W20       29.75R FOG     WCI  16
HAMILTON       LGT SNOW  28  25  88 W14G24    29.74R FOG     WCI  17
DAYTON         FLURRIES  29  26  89 NW16      29.68R WCI  17
WRIGHT-PAT AFB NOT AVBL
DAYTON GENERAL LGT SNOW  29  25  85 W13       29.68R VSB 1   WCI  19
WILMINGTON     LGT SNOW  31  29  92 NW18      29.65S FOG     WCI  19
$$

OHZ036-037-039>041-045>050-054>059-063>069-073>076-082>088-090300-
  CENTRAL AND SOUTHEAST OHIO

CITY           SKY/WX    TMP DP  RH WIND       PRES   REMARKS
COLUMBUS       LGT SNOW  32  32 100 CALM      29.63S FOG
OSU AIRPORT    LGT SNOW  33  31  92 W10       29.62F FOG     WCI  25
BOLTON FIELD   NOT AVBL
RICKENBACK AFB NOT AVBL
NEWARK         CLOUDY    34  31  88 CALM      29.62F FOG
MARION         PTCLDY    32  29  88 W3        29.62S FOG
LANCASTER      CLOUDY    35  32  88 SW7       29.64S WCI  29
ZANESVILLE     CLOUDY    35  32  88 CALM      29.62S FOG
NEW PHILLY     CLOUDY    31  30  96 S3        29.62S FOG
$$




USA.gov is the U.S. government's official web portal to all federal, state and local government web resources and services.